Theta_e
315 322 322 324 325 325 328 331 332 334 334 340 339 338 347 349 347 350 344 352 350 336 340 344 345 343 343 342 344 344 343 339 340 336 326 325 324 321 319 322 327 328 327 326 324 323 324 325 330
313 321 326 326 324 328 329 330 331 333 337 339 339 339 351 347 340 340 346 354 350 332 338 342 344 343 342 341 343 344 344 340 341 337 328 324 326 322 322 321 326 328 327 327 325 323 324 324 328
312 315 324 321 321 326 329 331 331 332 338 339 338 338 354 351 348 345 351 353 350 330 337 341 343 343 342 341 342 343 344 341 340 338 330 325 325 323 325 323 324 325 327 327 324 324 324 324 325
312 317 323 322 324 325 327 330 331 333 336 339 339 343 355 354 351 349 351 353 348 331 338 338 342 342 341 340 341 343 344 343 340 339 332 327 325 324 328 326 326 326 325 323 323 325 324 324 329
315 316 318 322 324 326 327 329 331 331 334 338 339 336 352 353 350 349 353 352 342 331 338 339 340 341 340 338 339 342 344 344 340 339 333 329 325 325 326 327 327 325 322 321 323 324 324 324 325
315 317 313 319 321 326 327 329 330 330 334 336 337 336 354 352 350 350 350 350 343 329 338 339 341 340 337 335 337 341 344 344 340 340 335 330 326 325 324 325 326 322 322 322 322 324 324 324 323
313 311 313 314 317 321 326 327 328 328 330 336 335 339 352 354 350 354 353 351 348 334 339 341 341 340 337 334 335 341 343 344 341 339 336 332 327 324 325 323 322 322 323 323 323 323 323 323 323
315 312 313 316 317 317 320 322 326 329 330 332 334 337 353 351 350 351 351 351 350 350 339 340 340 338 335 334 334 338 341 342 341 338 336 332 326 324 325 324 322 322 323 323 323 323 323 322 322
315 313 314 315 317 318 321 320 323 325 330 332 333 338 349 351 349 348 349 353 354 352 347 341 340 338 335 333 334 337 338 339 337 337 335 329 323 323 325 324 323 322 323 323 323 323 322 322 322
312 313 314 316 316 317 318 319 320 322 332 331 333 342 351 351 350 347 344 349 352 353 350 339 340 337 334 332 332 334 336 336 335 333 329 324 321 322 324 324 323 322 323 323 323 323 323 323 323
312 313 315 316 317 318 318 318 320 320 321 330 331 344 352 352 350 347 342 343 350 351 351 344 337 337 333 330 331 332 332 332 331 328 325 322 321 323 324 324 323 322 323 323 323 324 324 323 323
311 313 316 317 317 318 318 319 319 320 320 323 325 339 346 349 346 342 343 341 345 348 349 348 340 334 333 331 330 331 331 330 327 324 323 322 322 323 328 324 324 328 327 325 324 323 323 333 337
312 313 316 317 318 317 318 318 318 318 320 322 324 335 347 344 340 338 337 339 339 345 347 348 346 343 336 335 341 334 332 331 329 326 323 322 323 327 337 340 334 338 338 341 331 337 337 335 340
314 314 315 317 317 318 318 317 318 318 319 320 324 334 339 343 344 341 336 334 338 346 347 348 346 343 343 346 345 344 341 336 337 334 329 324 325 335 341 342 341 338 340 341 343 343 345 345 343
315 313 313 315 317 316 318 316 317 318 318 320 322 325 331 340 341 340 341 344 344 346 346 346 346 344 343 349 348 347 345 344 346 346 346 344 330 337 343 342 341 342 344 347 347 346 345 345 347
315 312 312 313 316 317 317 316 317 319 318 318 320 323 327 334 337 338 336 335 335 338 341 345 345 348 345 344 348 349 346 347 347 347 348 348 348 340 346 347 348 345 344 344 345 345 345 345 346
314 313 312 313 314 316 316 316 316 319 319 318 318 320 321 327 334 334 334 334 333 330 328 328 335 338 348 344 345 347 348 349 349 348 349 350 349 349 346 347 349 348 349 347 347 345 341 342 342
314 313 313 314 314 314 314 316 316 318 319 318 319 319 318 319 324 334 334 333 333 331 328 319 324 341 343 336 338 342 335 336 341 350 349 348 349 348 349 346 345 346 348 347 345 343 337 335 344
316 315 314 315 316 315 314 314 315 316 318 317 318 319 319 320 319 334 335 335 331 331 329 325 321 322 329 337 335 334 334 336 340 351 348 349 351 349 348 347 344 342 346 346 344 344 343 345 345
315 315 315 316 317 315 315 315 316 315 316 317 318 318 319 319 320 326 334 334 333 332 330 327 323 321 339 341 339 335 336 334 335 348 345 348 351 349 345 335 339 336 337 342 344 340 337 336 340
315 315 316 316 318 320 319 317 318 318 318 319 319 319 319 319 319 321 331 333 333 332 331 329 324 322 325 343 342 340 340 334 330 343 349 349 342 345 342 331 344 344 344 343 340 334 339 340 335
315 316 317 317 317 317 319 317 318 319 318 318 318 319 319 319 319 319 323 332 333 332 331 331 327 323 325 338 336 341 341 335 342 344 347 344 346 343 334 341 343 343 344 343 343 341 339 333 325
316 317 316 317 316 319 317 316 316 319 322 322 324 325 323 319 320 320 323 328 332 329 330 329 326 323 321 321 322 322 325 333 329 344 342 341 341 338 334 344 346 348 344 343 342 339 329 326 331
316 316 316 315 314 316 317 317 316 317 320 325 326 324 325 324 325 325 327 329 329 328 330 328 326 324 322 322 332 335 333 330 328 337 342 342 340 340 339 339 338 341 341 341 336 326 327 330 329
315 314 314 316 316 317 317 318 317 324 326 327 326 324 325 325 325 325 328 332 330 330 329 328 327 327 331 332 332 333 336 329 325 335 336 338 335 336 335 335 336 333 331 327 327 327 326 325 324
315 314 314 317 319 319 320 319 318 326 326 326 325 325 327 326 327 327 328 329 330 330 330 333 333 334 334 334 334 338 338 335 335 334 332 333 334 334 334 334 332 330 331 331 331 331 331 331 332
316 316 315 316 323 322 321 327 326 325 324 323 325 327 328 330 329 328 327 326 331 329 329 329 331 332 332 333 331 334 336 335 332 331 331 330 329 327 328 329 331 331 331 331 331 331 331 331 330
316 315 316 315 323 323 322 326 330 325 323 322 324 326 327 328 328 329 329 329 328 329 329 326 326 330 328 327 328 327 325 326 326 324 325 325 325 318 316 316 315 315 315 315 314 314 314 314 314
315 315 316 319 323 321 324 332 327 330 329 324 325 325 325 325 325 324 324 324 325 325 324 322 320 320 319 318 316 316 316 316 315 315 315 314 314 315 315 314 312 311 310 310 311 311 311 312 314
317 317 320 323 327 328 324 327 324 325 324 324 326 323 323 323 323 322 321 320 320 319 318 317 316 316 316 315 315 315 315 314 313 312 311 310 309 309 309 310 310 311 312 313 314 314 315 316 317
Wind_Speed
16 8 7 13 2 1 6 9 11 19 18 13 13 4 9 9 7 9 8 23 19 28 31 30 30 28 27 24 23 22 20 19 18 16 17 18 19 19 20 20 20 17 15 13 12 12 13 13 14
13 10 9 6 2 3 6 16 17 20 16 8 5 6 7 4 19 20 27 30 21 30 32 32 31 29 28 26 24 23 21 20 18 16 17 18 19 19 18 18 17 16 14 12 11 11 11 11 12
11 9 3 4 4 8 6 17 17 14 17 20 4 10 13 17 15 32 25 32 24 32 32 30 30 28 26 25 23 23 22 20 18 16 16 17 18 18 17 17 16 16 13 11 9 10 10 9 10
6 4 7 2 9 13 19 21 15 22 15 11 14 3 13 25 39 27 30 30 26 34 32 30 28 27 25 23 22 21 21 20 19 16 15 16 17 17 17 17 16 14 12 10 8 9 8 8 8
9 6 4 5 11 14 18 24 25 13 16 2 16 6 19 22 24 35 38 30 26 33 32 30 28 25 23 21 21 21 21 20 19 16 15 15 16 17 17 16 15 13 11 10 9 9 8 7 7
5 5 2 12 15 14 17 30 26 14 20 25 11 11 10 21 33 35 31 24 24 33 34 32 30 26 23 23 22 22 23 22 20 17 14 14 15 17 17 16 14 12 12 10 10 9 9 7 7
8 2 6 8 12 15 21 33 18 11 16 19 12 5 9 23 25 25 13 11 19 25 33 33 31 29 27 23 23 23 23 22 20 17 14 13 14 16 17 16 14 13 12 11 10 9 8 7 6
18 3 8 10 13 19 22 28 26 22 11 27 9 4 3 24 23 28 24 22 19 16 26 31 32 30 27 27 23 23 23 21 19 17 15 14 14 16 17 16 15 14 12 11 10 9 8 7 6
18 9 13 18 15 13 23 15 29 31 29 20 18 3 17 20 21 22 23 16 21 18 17 27 29 28 27 27 27 25 23 22 20 18 17 16 16 18 18 17 15 14 13 12 11 10 9 8 7
8 8 19 10 13 14 20 20 23 18 9 22 28 7 21 26 27 17 9 8 11 14 10 25 26 26 26 26 26 26 25 25 24 22 20 19 18 19 19 18 17 15 14 13 12 11 10 9 7
10 18 11 16 28 31 23 27 25 11 9 8 20 19 23 21 18 21 25 21 5 13 16 18 26 24 24 25 25 26 26 25 24 22 21 19 20 20 20 19 18 17 16 15 13 12 12 9 9
14 24 23 24 28 26 14 25 20 20 18 22 26 25 26 24 27 27 37 28 12 9 19 21 20 23 22 21 24 24 25 25 24 23 22 22 21 21 17 20 18 15 14 14 16 15 13 9 6
19 15 27 33 34 31 29 22 22 23 27 24 16 16 23 27 30 25 28 39 26 8 13 28 28 20 19 20 17 20 23 23 21 20 20 21 21 21 17 13 15 13 10 6 10 6 7 10 8
19 20 24 27 30 32 18 17 18 33 26 22 8 6 19 22 25 27 24 24 25 26 14 11 33 28 28 21 23 18 18 18 18 20 20 21 22 21 19 18 16 15 14 13 10 10 8 5 7
26 16 14 15 18 9 17 10 20 29 26 25 19 12 11 22 26 25 25 25 26 25 29 17 26 32 32 24 22 19 10 16 18 16 14 13 20 22 20 20 22 20 18 15 12 13 13 12 13
10 8 13 10 7 15 12 14 10 22 25 27 25 17 14 20 31 37 34 27 20 20 24 26 22 24 31 36 25 24 29 22 27 23 19 17 14 18 20 21 18 16 17 20 19 16 17 16 18
7 9 9 7 11 8 14 12 10 21 22 25 30 26 20 16 28 29 26 18 15 9 8 8 17 24 29 31 32 26 28 23 28 30 24 20 19 17 19 24 24 19 17 19 22 21 16 12 21
11 10 11 12 14 13 10 13 11 24 21 18 18 37 27 25 23 33 29 24 21 16 9 10 12 18 35 21 43 42 20 34 53 34 29 24 22 19 20 19 23 27 24 21 22 15 13 21 20
15 16 13 18 15 11 15 9 10 16 22 19 26 24 29 24 34 31 33 32 28 21 14 10 11 9 17 23 36 49 35 22 29 24 27 24 21 22 23 21 19 27 25 23 21 14 12 15 19
19 19 18 11 18 12 10 10 10 11 11 26 29 31 31 32 26 28 35 34 32 29 22 14 10 8 10 16 6 35 34 23 18 26 26 23 22 27 25 24 18 24 22 21 20 19 20 20 18
20 19 16 10 8 4 5 4 5 7 12 21 27 36 35 31 31 26 29 38 37 35 30 23 14 11 9 9 7 15 12 16 17 31 28 19 21 24 13 19 20 19 19 24 20 23 19 19 22
19 20 20 13 6 4 3 6 8 7 12 8 19 28 33 32 33 31 23 36 41 31 27 29 24 18 12 16 12 10 15 15 19 16 14 21 18 17 15 19 17 15 22 19 18 18 21 21 21
17 15 16 10 6 2 8 1 7 5 5 3 7 17 11 26 29 28 28 31 34 30 33 34 27 26 17 13 15 12 12 14 13 8 9 12 14 17 11 16 16 19 21 23 22 22 24 22 20
19 8 7 9 4 5 6 6 7 7 7 5 4 15 16 11 6 3 5 25 34 32 29 25 24 24 15 10 9 9 12 14 12 13 6 8 11 10 13 18 18 17 21 20 21 21 22 22 22
12 6 2 2 4 5 11 10 11 5 7 7 8 13 14 12 7 8 9 15 19 17 10 13 17 12 9 10 11 12 14 13 14 9 8 10 11 13 14 14 15 16 17 16 16 18 22 24 27
10 9 5 8 5 10 13 9 7 8 11 14 15 15 13 18 20 19 20 22 19 17 14 9 5 11 15 12 8 8 10 9 8 11 9 11 10 11 14 16 19 19 17 17 19 22 23 24 26
9 10 8 3 3 2 3 5 7 8 8 9 12 12 25 27 28 25 23 23 19 17 12 13 7 7 4 4 4 6 6 6 5 7 11 10 9 8 9 10 13 17 19 22 25 27 29 29 31
14 9 9 3 6 5 0 5 1 5 7 15 6 19 27 29 26 23 18 15 16 16 12 5 8 2 2 5 4 3 4 3 3 5 7 10 14 15 14 15 17 20 23 25 27 29 31 33 35
7 10 6 4 4 6 4 3 9 4 7 12 15 16 26 22 19 20 23 20 16 12 11 8 9 4 6 6 5 5 5 5 6 8 11 13 15 18 21 24 25 26 27 28 29 30 31 33 34
9 8 7 5 1 3 4 2 5 3 11 24 13 15 24 22 21 22 25 23 19 20 20 17 13 10 8 6 4 6 7 10 12 14 16 18 19 20 22 25 26 28 28 28 28 28 28 26 27
Wind_Direction
259 259 289 319 15 155 252 257 262 282 296 76 355 343 108 86 148 163 220 229 198 172 166 165 166 165 162 161 158 157 154 150 141 131 130 133 133 132 134 138 136 134 130 123 119 120 124 126 122
246 237 287 260 169 256 259 250 260 257 317 134 165 292 74 59 143 165 176 202 196 176 168 166 168 168 165 165 164 162 161 156 150 141 134 136 137 136 137 142 144 140 136 131 131 132 133 138 134
228 225 274 182 204 226 248 258 257 302 337 347 170 255 119 150 141 157 179 180 186 176 169 167 168 170 170 169 168 167 165 162 159 149 140 140 142 143 144 147 148 148 144 142 142 141 141 144 147
193 199 254 232 239 233 234 263 281 288 307 321 320 67 96 146 149 166 189 180 182 173 168 166 170 172 173 174 173 172 171 167 164 156 147 145 149 149 150 154 155 153 149 150 156 151 146 148 152
190 253 228 225 242 257 264 265 281 295 319 207 293 274 138 156 165 167 176 173 181 173 168 167 170 175 175 178 178 177 176 174 170 164 158 154 156 160 162 163 162 160 159 159 166 164 158 161 168
228 219 255 231 251 256 261 266 275 289 300 300 293 329 67 121 135 166 177 179 185 172 170 169 170 174 179 180 180 180 180 179 176 173 168 163 167 171 172 172 173 171 168 169 177 180 173 177 186
217 228 220 256 264 263 249 261 269 269 272 268 15 47 102 123 132 140 135 160 173 167 173 172 172 175 176 182 182 179 180 181 180 180 179 177 179 180 181 180 181 181 179 179 187 192 189 193 199
224 228 261 240 244 260 270 277 279 253 273 276 351 18 166 139 146 138 140 177 172 177 184 178 177 179 179 177 182 181 180 184 186 186 187 190 190 188 188 189 190 190 191 192 194 202 201 204 207
228 233 238 241 242 243 269 273 275 288 241 244 277 353 150 162 147 120 81 115 172 180 199 193 184 182 182 182 179 183 184 185 192 195 195 197 196 193 193 195 199 200 203 203 206 207 212 214 214
210 226 234 245 255 263 271 283 287 309 295 238 254 136 155 150 174 181 9 315 157 185 203 202 196 190 188 188 186 185 190 191 195 197 198 197 196 195 195 198 205 210 213 215 216 219 225 231 235
250 241 244 239 253 266 276 282 290 298 291 262 225 168 162 166 178 187 193 190 212 202 207 210 207 199 196 196 193 193 196 198 199 202 201 198 197 196 197 203 208 214 221 226 231 233 237 244 249
239 240 245 253 258 259 263 283 283 279 276 299 320 183 159 153 155 165 169 177 195 236 211 210 203 200 202 199 202 204 204 203 204 204 201 199 199 196 197 206 208 214 230 240 240 243 245 232 239
229 242 237 239 247 255 268 271 277 285 292 284 317 194 149 145 150 160 185 206 208 188 188 197 197 190 197 206 203 216 218 216 214 215 209 204 201 200 192 219 226 215 217 240 235 248 245 231 244
239 243 246 242 231 237 249 261 283 272 281 288 273 127 141 145 156 156 183 205 196 211 174 181 194 185 188 206 221 222 234 221 224 223 219 207 205 200 205 218 228 230 243 246 256 264 273 250 251
247 254 268 243 241 232 242 260 248 267 276 285 280 262 241 159 155 154 157 177 186 194 181 195 189 195 189 190 201 216 232 217 221 216 214 212 213 200 205 222 227 229 241 250 254 250 254 248 239
255 256 250 258 235 227 215 256 263 261 268 276 275 268 250 209 148 141 144 155 167 178 193 199 210 211 194 197 206 201 203 221 235 228 225 223 213 216 207 225 227 234 239 238 241 255 258 260 253
269 241 244 246 255 232 198 242 251 266 258 259 265 264 256 246 199 179 173 174 158 143 156 202 216 211 202 204 208 219 206 207 244 225 229 226 225 235 231 221 218 228 233 235 238 239 256 257 261
233 227 236 247 228 238 242 229 222 236 251 257 265 260 255 252 247 192 194 191 192 178 148 107 158 185 214 217 215 216 233 230 259 221 220 223 228 233 231 232 226 223 232 247 246 264 259 235 235
244 245 226 230 239 201 230 222 212 214 225 237 250 253 264 266 253 207 211 217 192 196 197 163 144 176 182 204 215 230 243 225 296 201 212 222 236 231 222 225 230 231 222 232 249 259 245 226 239
240 247 253 261 227 205 207 225 223 224 212 214 225 238 251 261 268 223 203 207 206 207 201 187 155 136 170 197 252 228 219 251 225 236 216 218 224 226 241 245 261 249 245 244 246 243 239 256 264
228 242 252 247 289 191 178 267 257 259 223 226 224 227 235 249 255 253 215 208 217 216 209 205 179 157 167 191 160 173 194 180 271 234 230 225 227 238 245 232 238 261 245 241 244 242 246 257 258
226 225 242 258 266 228 163 241 251 238 242 245 239 225 226 235 247 249 244 215 214 211 221 222 213 208 165 180 185 185 199 202 184 214 223 217 212 246 248 234 240 231 225 229 230 224 241 254 256
228 215 214 244 261 205 290 92 256 260 186 175 39 60 16 247 237 235 230 226 203 229 229 211 201 208 203 171 173 191 205 218 223 237 254 233 209 231 246 238 235 227 232 240 239 239 251 257 263
232 219 183 201 203 245 228 234 261 242 215 116 79 80 67 98 99 170 192 218 224 219 199 188 197 206 204 205 179 204 213 211 212 239 205 199 228 249 244 246 253 249 249 251 251 252 247 249 257
209 131 221 227 211 216 223 226 228 179 133 143 140 127 108 108 70 68 83 157 181 172 191 218 228 209 219 219 221 208 210 228 243 247 243 220 202 206 216 215 217 228 242 253 264 264 260 259 262
205 166 158 180 173 228 232 248 272 106 86 108 115 99 102 110 112 105 115 121 140 161 154 129 170 173 206 213 209 182 186 194 193 186 208 209 177 190 210 216 222 227 235 241 249 254 259 263 265
191 201 190 160 220 103 192 144 66 89 92 86 81 50 83 82 90 114 121 117 114 124 116 124 86 104 104 151 222 259 257 252 210 189 198 195 209 236 234 233 233 237 242 247 255 262 266 267 270
186 162 210 201 181 221 278 78 245 40 7 36 59 83 77 79 84 95 105 111 123 130 138 83 332 302 22 18 37 22 334 316 286 286 276 264 256 272 287 286 280 277 276 276 276 275 274 276 275
188 192 189 130 125 170 128 126 359 41 73 54 25 35 99 93 93 98 97 96 105 99 81 101 113 60 75 65 43 36 17 351 331 315 305 299 294 292 291 291 292 294 292 290 288 287 285 284 285
193 180 145 125 248 69 103 91 334 49 118 88 54 3 115 123 123 115 114 109 106 109 104 111 101 86 72 65 27 6 341 329 322 314 310 309 305 297 293 293 296 296 297 295 289 285 281 278 276